Simultaneous Nadir Overpasses (SNOs) Predictions

Prediction of SNOs between GOES-15 and METOP-B Satellite Orbit:

Table of predicted SNOs for the next 14.0 days since TLE Epoch: 7/27/2024
Index Date Time (GOES-15) GOES-15 Lat,Lon METOP-B Lat,Lon Distance(km) Time Diff (sec)
1 07/27/2024 17:15:08 -0.08, 61.32 0.00, 61.70 43.30 80
2 07/29/2024 05:31:24 0.04, 61.24 0.94, 57.09 471.89 80
3 07/30/2024 05:13:26 0.07, 61.26 -0.09, 62.09 93.73 80
4 07/31/2024 17:29:50 -0.02, 61.41 -0.89, 57.46 450.28 80
5 08/01/2024 17:11:52 -0.05, 61.43 0.15, 62.45 115.28 80
6 08/03/2024 05:28:08 -0.00, 61.36 0.78, 57.84 400.44 80
7 08/04/2024 05:10:11 0.03, 61.38 -0.32, 62.82 164.88 80
8 08/05/2024 17:26:34 0.02, 61.54 -0.70, 58.20 379.47 80
9 08/06/2024 17:08:35 -0.00, 61.56 0.35, 63.19 186.05 80
10 08/08/2024 05:24:52 -0.05, 61.48 0.57, 58.59 329.32 80
11 08/09/2024 05:06:53 -0.02, 61.51 -0.48, 63.58 235.99 80
